Regional Weather Roundup
Issued by NWS Wakefield, VA

Home | Current Version | Previous Version | Graphics & Text | Print | Product List | Glossary On
Versions: 1 2 3 4 5 6 7 8 9 10 11 12 13 14 15 16 17 18 19 20 21 22 23 24 25 26 27 28 29 30 31 32 33 34 35 36 37 38 39 40 41 42 43 44 45 46 47 48 49 50
000
ASUS41 KAKQ 270615
RWRAKQ

REGIONAL WEATHER ROUNDUP
NATIONAL WEATHER SERVICE WAKEFIELD VA
200 AM EDT MON MAR 27 2017

Note: "fair" indicates few or no clouds below 12,000 feet with no
significant weather and/or obstructions to visibility. * = Denotes
station may not report precipitation (e.g., rain,snow,etc.),
thunder or fog.

VAZ042-051-052>054-056-270700-
NORTHERN VIRGINIA

CITY           SKY/WX    TMP DP  RH WIND       PRES   REMARKS
WASH NATIONAL  DRIZZLE   47  46  97 E5        30.17F FOG
DULLES         DRZL/FOG  45  44  97 SE5       30.15F VSB 3/4
FORT BELVOIR   CLOUDY    46  45  95 VRB3      30.15F FOG
QUANTICO       FOG       48  48 100 E5        30.17F VSB 3/4
FREDERICKSBRG* FOG       49  49 100 CALM      30.15F VSB 1/2
STAFFORD*      FOG       47  47 100 E6        30.19F VSB 1/2
WARRENTON      FOG       48  46  90 CALM      30.14F VSB 1/2
CULPEPER*      FOG       49  49 100 CALM      30.16F VSB 3/4
MANASSAS*      CLOUDY    46  46 100 E6        30.16F FOG
LEESBURG*      FOG       46  46 100 SE6       30.15F VSB 3/4
WINCHESTER     CLOUDY    45  45 100 E6        30.11F
FRONT ROYAL*   CLOUDY    46  46 100 CALM      30.09F
LURAY*         CLOUDY    50  50 100 CALM      30.09F
$$

VAZ048-049-060>072-079>083-270700-
CENTRAL AND SOUTH CENTRAL VIRGINIA

CITY           SKY/WX    TMP DP  RH WIND       PRES   REMARKS
RICHMOND       MOCLDY    51  51 100 E3        30.13F
CHESTERFIELD*  FAIR     N/A N/A N/A SE3       30.14F
PETERSBURG*    PTCLDY    51  49  94 CALM      30.14F
HANOVER        MOCLDY    49  46  90 CALM      30.15F
TAPPAHANNOCK*  PTCLDY    50  50 100 CALM      30.15F
QUINTON*       MOCLDY    51  51 100 E5        30.13F
CHARLOTTSVILLE LGT RAIN  50  49  96 N3        30.14F FOG
GORDONSVILLE*  CLOUDY    49  49 100 CALM      30.14F FOG
ORANGE*        RAIN      46  46 100 CALM      30.16F VSB 1/2
LOUISA*        CLOUDY    54  54 100 CALM      30.13F FOG
BUMPASS*       CLOUDY    51  51 100 E3        30.14S
FARMVILLE*     CLOUDY    54  54 100 CALM      30.12F FOG
CREWE*         CLOUDY    55  55 100 CALM      30.12F
FORT PICKETT*  MOCLDY    59  54  84 S6        30.12F
CHASE CITY*    MOCLDY    60  58  94 S3        30.12S
CLARKSVILLE*   FAIR      63  55  77 S5        30.11F
SOUTH HILL*    CLOUDY    60  54  80 S6        30.19F
LAWRENCEVILLE* MOCLDY    60  53  77 S3        30.14S
EMPORIA*       PTCLDY    59  54  82 SE5       30.15F
$$

VAZ088>098-270700-
SOUTHEAST VIRGINIA

CITY           SKY/WX    TMP DP  RH WIND       PRES   REMARKS
NORFOLK        CLOUDY    57  53  86 S6        30.16F
VIRGINIA BEACH CLOUDY    56  51  84 S6        30.16F
NORFOLK NAVAL  MOCLDY    58  52  80 S6        30.17F
WEST POINT*    PTCLDY    50  49  97 E3        30.16F
SALUDA*        MOCLDY    50  50 100 E5        30.15F
NEWPORT NEWS   PTCLDY    55  51  86 S6        30.15F
LANGLEY AFB    CLOUDY    56  54  90 S7        30.15F
FORT EUSTIS    CLOUDY    56  52  85 SE6       30.12F
WILLIAMSBURG*  PTCLDY    54  54 100 CALM      30.16F
HR EXEC AP*    FAIR      54  46  76 CALM      30.15F
FRANKLIN*      CLOUDY    58  53  83 SE5       30.16F
US460-WAKEFLD  PTCLDY    52  51  97 CALM      30.14F
$$

VAZ020-022-025-037-045-270700-
WEST CENTRAL AND SOUTHWEST VIRGINIA

CITY           SKY/WX    TMP DP  RH WIND       PRES   REMARKS
STAUNTON*      CLOUDY    50  49  96 SW3       30.12F
WAYNESBORO*    CLOUDY    48  48 100 SE5       30.10F
HOT SPRINGS VA LGT RAIN  52  52 100 S10G20    30.11F VSB<1/4
LYNCHBURG      CLOUDY    51  50  96 N8        30.13F FOG
DANVILLE       CLOUDY    57  57 100 CALM      30.12R
SOUTH BOSTON*  CLOUDY    62  56  82 CALM      30.12S
MARTINSVILLE   FOG       54  54  98 CALM      30.14F VSB 3/4
ROANOKE        CLOUDY    55  55 100 SE7       30.13F
BLACKSBURG     CLOUDY    55  54  95 SE3       30.14F
DUBLIN*        CLOUDY    60  56  88 S6        30.12S
MARION*        CLOUDY    58  53  85 CALM      30.12F
HILLSVILLE*    CLOUDY    56  56 100 CALM      30.11F
RICHLANDS*     RAIN      57  52  83 W7        30.08S
WISE*          PTCLDY    57  50  77 SW5       30.09S
ABINGDON*      MOCLDY    59  53  79 CALM      30.08S
$$

MDZ021>025-VAZ099-100-270700-
SOUTHERN MARYLAND AND THE DELMARVA PENINSULA

CITY           SKY/WX    TMP DP  RH WIND       PRES   REMARKS
PATUXENT RIVER FOG       47  47 100 E3        30.17F VSB 1/4
BAY BRIDGE APT FOG       45  45 100 E5        30.18F VSB 1/2
LEONARDTOWN    CLOUDY    45  45 100 E5        30.17F VSB 1/4
DOVER          FOG       45  45 100 E9        30.17F VSB 1/2
GEORGETOWN     FOG       46  45  96 E5        30.19F VSB 1/4
EASTON         FOG       46  45  94 CALM      30.21F VSB 1/2
CAMBRIDGE      FOG       46  46 100 E6        30.17F VSB 1/4
SALISBURY      FOG       48  48 100 NE3       30.18F VSB 1/4
OCEAN CITY     FOG       47  46  97 CALM      30.19F VSB 1/4
WALLOPS ISLAND FOG       46  46 100 E6        30.18F VSB 1/2
ACCOMACK*      PTCLDY    48  47  97 SE7       30.17F
$$

NCZ012>017-030>032-270700-
NORTH CENTRAL AND EASTERN NORTH CAROLINA

CITY           SKY/WX    TMP DP  RH WIND       PRES   REMARKS
ROANOKE RAPIDS FAIR      61  54  77 S6        30.15S
RALEIGH        PTCLDY    64  53  67 S10       30.13F
ELIZABETH CITY CLEAR     53  51  93 SE6       30.18F
AHOSKIE*         N/A     57  54  90 S3        30.16F
EDENTON*       CLEAR     59  55  85 CALM      30.18F
CURRITUCK*     CLEAR     56  56 100 CALM      30.18F
KILL DEVIL HLS NOT AVBL
MANTEO         CLEAR     61  54  77 S8        30.18F
CAPE HATTERAS  MOCLDY    67  54  63 S12       30.18F
TARBORO*       NOT AVBL
GOLDSBORO      MOCLDY    60  59  98 CALM      30.14F
WASHINGTON     PTCLDY    58  55  87 SE5       30.17F
GREENVILLE     PTCLDY    59  55  88 S3        30.17F
NEW BERN       CLEAR     52  52 100 CALM      30.18F
WILMINGTON     CLEAR     54  53  97 CALM      30.16F
$$

VAZ048-270700-
ELSEWHERE

CITY           SKY/WX    TMP DP  RH WIND       PRES   REMARKS
HARRISBURG PA  LGT RAIN  42  42 100 E8        30.17F FOG
BALTIMORE      FOG       44  44 100 E9        30.17F VSB 1/2
ANNAPOLIS      FOG       46  45  96 E5        30.17F VSB 1/2
ANDREWS AFB    MIX PCPN  45  45 100 E5        30.14F VSB 1/2
PHILADELPHIA   CLOUDY    42  40  92 E8        30.21F FOG
HENDERSON NC   CLEAR     60  51  72 S9        30.12F
GREENSBORO     CLOUDY    61  56  83 S8        30.11S
ROCKY MOUNT    CLEAR     58  54  86 CALM      30.16S
$$

VAZ100-270700-
MARINE

STATION/POSITION TIME  TEMP    WIND        PRES    WAVE   SWELL
                       AIR SEA DIR/SP/G            HT/PER HT/PER
                 (UTC) (F)     (DEG/KT/KT) (MB)    (FT/S) (FT/S)
CAPE MAY NJ      0548   45 45   90/  4/  6 1022.0F
LEWES DE         0542   44 45  100/  6/  8 1022.3F
OCEAN-CITY-INLET 0542   46 45   10/  4/  4 1022.7F
WACHAPREAGUE VA  0548   47 55   CALM  /  1 1021.5F
THOMAS POINT MD  0600   44 45   80/  6/  6   N/A
GOOSES REEF MD   0600   45 45  130/  6/  8 1022.0    1
COVE POINT MD    0548   46     140/  2/  3 1022.3F
SOLOMONS ISLAND  0542   46 47   70/  5/  5   N/A
BISHOPS HEAD MD  0548   48 51   90/  6/  8 1021.7F
PINEY POINT MD   0548          130/  8/  9   N/A
POTOMAC MD       0600   47 47  120/  8/ 10 1020.4    1
CAMBRIDGE MD     0548   46 47   90/  5/  7 1021.0F
LEWISETTA VA     0548   47 50  120/  9/ 11 1021.0F
RAPPAHANNOCK LGT 0548          170/  6/  7 1022.0F
STINGRAY PT      0550   49     130/  4/  4 1021.3F
YORK RVR RNG VA  0548   52     160/ 11/ 11 1020.4F
YORKTOWN VA      0548   52 51  160/  3/  3 1020.8F
JAMESTOWN VA     0600   56 54  110/  6/  8   N/A     0
DOMINION TERM VA 0548   55     150/  3/  4 1021.4F
KIPTOPEKE VA     0548      50  160/  9/ 10   N/A
CHES BAY BRIDGE  0548   57 47  190/  8/  9 1021.3F
CAPE HENRY VA    0548   59     170/  9/ 12   N/A
WILLOUBY STN VA  0548   59     170/ 10/ 11 1022.1F
S CRANEY ISL VA  0548   56     170/  5/  6 1021.3F
CAPE HENRY BUOY  0542      51                N/A     3/ 7
CAPE CHARLES BUO 0551      49                N/A     3/ 7
OFFSHORE WE BUOY 0551      49                N/A     4/ 7   2/18
64NM E OF VA BCH 0550   55 50  150/  8/ 10 1021.9F   4/ 8   3/ 8
DUCK PIER NC     0548   54 49  160/ 11/ 12 1021.4F
44100 DUCK FRF   0535      50                N/A     3/ 7
44056 DUCK FRF   0530      50                N/A     3/ 7
OREGON INLET NC  0542   60 57  140/  5/  7 1022.1F
HATTERAS NC      0548   67 60  170/  9/ 12 1021.7F
DIAMOND SHLS NC  0550   69 76  170/ 12/ 16 1022.3F   4/ 8   3/ 8
CAPE LOOKOUT NC  0600   65     140/ 10/ 10 1021.3F
$$



USA.gov is the U.S. government's official web portal to all federal, state and local government web resources and services.